Regional Weather Roundup
Issued by NWS

Home | Current Version | Previous Version | Graphics & Text | Print | Product List | Glossary On
Versions: 1 2 3 4 5 6 7 8 9 10 11 12 13 14 15 16 17 18 19 20 21 22 23 24 25 26 27 28 29 30 31 32 33 34 35 36 37 38 39 40 41 42 43 44 45 46 47 48 49 50
000
ASUS45 KBOU 050207
RWRCO

WEATHER ROUNDUP FOR COLORADO
NATIONAL WEATHER SERVICE DENVER/BOULDER CO
800 PM MDT MON MAY 04 2015

NOTE: "FAIR" INDICATES FEW OR NO CLOUDS BELOW 12000 FEET WITH NO
SIGNIFICANT WEATHER AND/OR OBSTRUCTIONS TO VISIBILITY.

COZ001>005-013-030-031-050300-
...NORTHWEST COLORADO...

CITY           SKY/WX    TMP DP  RH WIND       PRES   REMARKS
CRAIG          PTCLDY    55  40  56 N10       29.99R
HAYDEN         NOT AVBL
MEEKER         CLOUDY    59  40  49 S5        29.97S
MOUNT WERNER   NOT AVBL
STEAMBOAT SPGS PTCLDY    55  37  50 NE7       30.02R
WALDEN         MOCLDY    50  37  62 E3        30.09R
$$

COZ006>008-011-050300-
...WEST CENTRAL VALLEYS...

CITY           SKY/WX    TMP DP  RH WIND       PRES   REMARKS
GRAND JUNCTION MOCLDY    64  40  41 NE7       29.88S
MONTROSE       LGT RAIN  53  45  74 E21       29.98F
EAGLE          MOCLDY    54  45  71 NE8       30.02S
RIFLE          PTCLDY    59  43  55 CALM      29.94S
DELTA          CLOUDY    63  41  45 S13G23    29.95R
NUCLA          CLOUDY    54  41  62 CALM      30.00F
$$

COZ017>023-064>068-050300-
...SOUTHWEST COLORADO...

CITY           SKY/WX    TMP DP  RH WIND       PRES   REMARKS
DURANGO        LGT RAIN  50  46  86 E8        30.02R
CORTEZ         MOCLDY    54  45  71 S8        29.97F
PAGOSA SPRINGS RAIN      46  46  97 E6        30.11R
TELLURIDE      CLOUDY    42  39  88 CALM      30.12S
WOLF CREEK PAS NOT AVBL
$$

COZ009-010-012-014-032>034-037-058>063-050300-
...CENTRAL COLORADO...

CITY           SKY/WX    TMP DP  RH WIND       PRES   REMARKS
ASPEN          MOCLDY    48  41  76 NW5       30.04S
BUENA VISTA    NOT AVBL
COPPER MTN     MOCLDY    39  32  75 CALM      30.26R
BERTHOUD PASS  HAZE      28  21  74 E21G26    30.30R VSB<1/4 WCI  15
COTTONWOOD PAS MIX PCPN  37  36  93 CALM      30.19R
GUNNISON       MOCLDY    50  34  53 S3        30.07S
KREMMLING      MOCLDY    50  39  66 NW10      30.09S THUNDER
LEADVILLE      MOCLDY    39  37  92 S15       30.14R
MONARCH PASS   FOG       32  32 100 MISG      30.33F VSB<1/4
SALIDA         CLOUDY    49  45  85 NE3       30.15S
SUNLIGHT       MOCLDY    37  32  81 CALM      30.21S
WILKERSON PASS MOCLDY    32  32 100 E8        30.26S FOG     WCI  25
$$

COZ069>075-050300-
...SAN LUIS VALLEY/SANGRE DE CRISTO MOUNTAINS...

CITY           SKY/WX    TMP DP  RH WIND       PRES   REMARKS
ALAMOSA        CLOUDY    52  38  58 E13       30.02S
LA VETA PASS   FOG       36  36 100 MISG      30.19R VSB 1/2
SAGUACHE       CLOUDY    55  34  44 S13G18    30.03S
$$

COZ035-036-038>040-050300-
...NORTHERN COLORADO FRONT RANGE...

CITY           SKY/WX    TMP DP  RH WIND       PRES   REMARKS
DENVER INTL AP LGT RAIN  52  49  89 E13       30.06R
DMNS CITY PARK   N/A     51  51  98 NE6       30.06R
AURORA         NOT AVBL
FRONT RANGE AP CLOUDY    54  52  94 E14       30.06S
ERIE MUNI ARPT DRIZZLE   53  51  94 NE5       30.06S
BOULDER MUN AP CLOUDY    52  50  93 N5        30.07R
CENTENNIAL     CLOUDY    52  48  86 SE9       30.06R
BROOMFIELD     CLOUDY    52  50  93 N12       30.07S
FORT COLLINS   CLOUDY    54  48  82 CALM      30.09R
LONGMONT       CLOUDY    55  52  88 CALM      30.08R
$$

COZ041-046-047-076>085-087-088-050300-
...PIKES PEAK/PALMER DIVIDE AND SOUTHERN FOOTHILLS...

CITY           SKY/WX    TMP DP  RH WIND       PRES   REMARKS
COLO. SPRINGS  TSTM      48  46  93 NE21      30.08R FOG
A. F. ACADEMY  NOT AVBL
ELLICOTT       CLOUDY   N/A N/A N/A SE10      30.05R
FALCON         TSTM      45  44  96 N10       30.12R
FORT CARSON    NOT AVBL
LIMON          CLOUDY    53  46  77 E20G25    30.07R
MONUMENT HILL  LGT RAIN  45  43  93 SE12      30.09R
TRINIDAD       MOCLDY    52  48  86 CALM      30.03S
$$

COZ042>045-048>051-090-091-050300-
...NORTHEAST COLORADO...

CITY           SKY/WX    TMP DP  RH WIND       PRES   REMARKS
GREELEY ARPT   CLOUDY    55  43  62 E20       30.07R
AKRON          CLOUDY    49  45  86 E13       30.09S
BURLINGTON     CLOUDY    55  47  74 NE13      30.07R
WRAY           CLOUDY    50  46  85 N9        30.09F
STERLING       CLOUDY    50  45  81 E7        30.11R
HOLYOKE        NOT AVBL
FORT MORGAN    CLOUDY    50  26  38 E16G22    30.09S
$$

COZ086-089-092>099-050300-
...SOUTHEAST COLORADO...

CITY           SKY/WX    TMP DP  RH WIND       PRES   REMARKS
PUEBLO         CLOUDY    58  46  64 S7        29.98S
LA JUNTA       LGT RAIN  56  52  86 SE10      29.97F
LAMAR          CLOUDY    55  54  96 NE9       29.98F
SPRINGFIELD      N/A     56  52  86 NE5       30.03R
$$



USA.gov is the U.S. government's official web portal to all federal, state and local government web resources and services.